Flag for India Weather past 2 weeks in Panipat, Haryana, India

Now
88 °F

Broken clouds.


Feels Like: 98 °F
Forecast: 81 / 96 °F
Wind: 9 mph from East

Location: New Delhi Palam Airport

Current Time: Jul 24, 2014 at 12:27:44 PM

Latest Report: Jul 24, 2014 at 11:30 AM


Visibility: 2 mi

Pressure: 29.56 "Hg

Humidity: 66%

Dew point: 75 °F

Location of PanipatLocation

Historic Weather in Panipat — Graph

°F

Panipat temperature yesterday

Maximum temperature yesterday: 90 °F (at 11:00 AM)
Minimum temperature yesterday: 84 °F (at 4:30 AM)
Average temperature yesterday: 86 °F

Past Weeks' High & Low Weather Summary

 TemperatureHumidityPressure
High106 °F (Jul 9, 5:30 PM)100% (Jul 17, 8:00 PM)29.59 "Hg (Jul 17, 8:00 PM)
Low79 °F (Jul 17, 8:00 PM)20% (Jul 11, 3:00 PM)29.39 "Hg (Jul 12, 5:00 PM)
Average90 °F65%29.48 "Hg
* Reported Jul 9 11:30 AM — Jul 24 11:00 AM, Panipat, Weather by CustomWeather, © 2014

Note: Actual official high and low records may vary slightly from our data, if they occured in-between our weather recording intervals... More about our weather records

Advertising

Panipat weather history for previous 24 hours

 ConditionsComfort  
Time TempWeatherWind HumidityBarometerVisibility
11:00 AM
Jul 24
88 °FBroken clouds.9 mph66%29.56 "Hg2 mi
10:30 AM88 °FBroken clouds.9 mph66%29.56 "Hg2 mi
10:00 AM86 °FBroken clouds.10 mph70%29.56 "Hg2 mi
9:30 AM86 °FBroken clouds.8 mph66%29.56 "Hg2 mi
9:00 AM84 °FBroken clouds.10 mph70%29.53 "Hg2 mi
8:30 AM84 °FFog.8 mph70%29.53 "Hg2 mi
8:00 AM84 °FFog.10 mph84%29.53 "Hg2 mi
7:00 AM82 °FFog.10 mph89%29.53 "Hg2 mi
5:30 AM82 °FFog.7 mph84%29.50 "Hg2 mi
5:00 AM82 °FFog.6 mph84%29.50 "Hg2 mi
4:30 AM82 °FFog.8 mph84%29.50 "Hg2 mi
4:00 AM82 °FFog.9 mph84%29.50 "Hg2 mi
3:30 AM82 °FFog.9 mph84%29.50 "Hg2 mi
3:00 AM84 °FFog.9 mph79%29.50 "Hg2 mi
2:30 AM84 °FFog.10 mph79%29.50 "Hg2 mi
2:00 AM84 °FFog.10 mph79%29.50 "Hg2 mi
1:30 AM84 °FFog.9 mph79%29.53 "Hg2 mi
1:00 AM84 °FFog.10 mph79%29.53 "Hg2 mi
12:30 AM84 °FFog.8 mph79%29.53 "Hg2 mi
12:00 AM84 °FFog.9 mph79%29.53 "Hg2 mi
11:30 PM
Jul 23
84 °FFog.8 mph79%29.53 "Hg2 mi
11:00 PM84 °FFog.9 mph79%29.53 "Hg2 mi
10:30 PM84 °FFog.9 mph79%29.53 "Hg2 mi
10:00 PM84 °FFog.8 mph79%29.53 "Hg2 mi
9:30 PM84 °FFog.8 mph79%29.53 "Hg2 mi
9:00 PM84 °FFog.8 mph79%29.53 "Hg2 mi
8:30 PM84 °FFog.9 mph79%29.50 "Hg2 mi
8:00 PM86 °FFog.7 mph79%29.50 "Hg2 mi
7:30 PM86 °FFog.7 mph79%29.50 "Hg2 mi
7:00 PM86 °FFog.8 mph79%29.50 "Hg2 mi
6:30 PM86 °FBroken clouds.8 mph75%29.47 "Hg2 mi
5:30 PM86 °FBroken clouds.10 mph70%29.47 "Hg3 mi
5:00 PM86 °FBroken clouds.10 mph70%29.47 "Hg3 mi
3:30 PM90 °FBroken clouds.9 mph59%29.50 "Hg3 mi
3:00 PM90 °FBroken clouds.9 mph59%29.50 "Hg3 mi
2:30 PM90 °FBroken clouds.9 mph59%29.50 "Hg3 mi
1:30 PM90 °FBroken clouds.12 mph63%29.53 "Hg3 mi
1:00 PM90 °FBroken clouds.N/A63%29.53 "Hg3 mi
Weather by CustomWeather, © 2014

See weather overviewHow to use our weather pages